Location: CARMA
(37.2805°N, 118.1419°W)
Time: 06:38:58
(UTC-08:00)

Daily predictions for brighter satellites

Satellite Brightness Start Highest point End
(mag) Time Altitude Azimuth Time Altitude Azimuth Time Altitude Azimuth
Cosmos 2366 rocket 4.0 16:53:00 10° N 16:59:22 77° E 17:05:38 10° S
Cosmos 1544 Rocket 4.0 16:58:05 10° NNW 17:02:33 71° W 17:06:59 10° S
Cosmos 2297 3.7 17:00:59 10° SSW 17:06:35 70° ESE 17:12:12 10° NNE
SJ-12 4.0 17:03:54 10° SSE 17:07:55 57° ENE 17:11:58 10° N
Abrixas 3.0 17:06:22 10° NW 17:09:11 39° NNE 17:11:59 10° E
COSMO-SKYMED 1 3.8 17:07:19 10° NE 17:10:46 22° E 17:14:10 10° SSE
Cosmos 2218 Rocket 4.3 17:05:01 10° N 17:11:16 75° W 17:17:24 10° S
NOSS 2-1 (D) 3.3 17:08:11 10° SSW 17:11:57 70° ESE 17:16:04 10° NE
Cosmos 921 Rocket 3.1 17:08:05 10° S 17:12:12 53° ESE 17:16:27 10° NNE
NOSS 2-1 (C) 3.3 17:08:51 10° SSW 17:12:38 69° ESE 17:16:46 10° NE
Cosmos 1666 4.4 17:11:58 10° NE 17:14:10 14° ENE 17:16:21 10° ESE
Cosmos 1025 Rocket 4.2 17:10:55 10° SE 17:14:23 23° E 17:17:52 10° NE
Cosmos 2278 Rocket 3.2 17:09:29 10° SW 17:14:53 46° WNW 17:20:19 10° N
Okean 1 3.6 17:11:40 10° SSW 17:15:42 72° W 17:19:46 10° N
Genesis I 3.6 17:12:13 10° NW 17:16:07 69° WSW 17:19:58 10° SSE
Cosmos 1346 Rocket 2.7 17:14:51 10° S 17:18:44 87° ESE 17:22:38 10° N
Cosmos 1536 Rocket 4.3 17:18:00 10° SSW 17:22:23 56° W 17:26:48 10° N
IDEFIX/ARIANE 42P 2.5 17:18:32 10° SSE 17:23:43 79° ENE 17:28:55 10° N
Cosmos 1238 Rocket 4.5 17:21:59 10° SW 17:24:32 26° WNW 17:27:16 10° NNW
ASTRO F (AKARI) 4.4 17:23:12 10° NNE 17:26:17 50° E 17:29:24 10° S
Thor Agena Rocket 3.7 17:21:41 10° NNE 17:26:57 83° WNW 17:32:14 10° SSW
NOSS 2-1 (E) 3.4 17:27:29 10° SW 17:31:20 80° WNW 17:35:37 10° NNE
YAOGAN 1 2.6 17:27:52 10° SSE 17:32:12 90° N 17:36:33 10° NNW
Cosmos 1821 Rocket 4.3 17:26:45 10° N 17:32:28 41° ENE 17:38:10 10° SSE
Cosmos 1833 Rocket 2.7 17:27:31 10° NNW 17:33:04 58° ENE 17:38:36 10° SE
Cosmos 1500 3.6 17:31:57 10° NNW 17:35:46 67° W 17:39:36 10° S
Cosmos 1743 2.7 17:34:51 10° N 17:38:39 56° E 17:42:25 10° SSE
Timation 2 Rocket 4.2 17:32:16 10° NNW 17:39:10 86° ENE 17:46:04 10° SSE
Cosmos 2082 Rocket 2.1 17:36:59 10° NNW 17:42:42 83° ENE 17:48:23 10° SSE
Meteor 1-28 Rocket 4.2 17:41:28 20° NE 17:43:08 27° E 17:46:22 10° SSE
CZ-2C R/B 3.0 17:39:04 10° S 17:44:01 63° W 17:49:08 10° NNW
Meteor 2-21 Rocket 4.4 17:38:22 10° N 17:44:34 79° E 17:50:41 10° S
Meteor 2-16 Rocket 4.4 17:38:41 10° N 17:44:44 64° E 17:50:45 10° SSE
COSMOS 2441 4.3 17:40:13 10° SSE 17:45:03 70° ENE 17:49:56 10° N
GRACE-2 3.8 17:46:48 10° S 17:49:34 85° W 17:52:21 10° N
USA 234 3.6 17:43:35 11° NE 17:49:48 60° NW 17:56:11 10° WSW
GRACE-1 3.8 17:47:13 10° S 17:50:00 82° W 17:52:46 10° N
Cosmos 1484 Rocket 2.5 17:51:02 10° SSE 17:54:44 70° ENE 17:58:27 10° N
Delta 2 Rocket 3.2 17:53:27 10° W 17:57:02 68° S 17:58:58 28° ESE
Nadezhda 3 Rocket 4.4 17:51:50 10° SSW 17:58:00 67° W 18:04:16 10° N
SKYMED 2 3.5 17:54:36 10° NNE 17:58:58 82° E 18:03:18 10° S
Cosmos 407 Rocket 3.8 18:00:22 10° N 18:05:12 40° ENE 18:10:02 10° SE
Cosmos 2056 Rocket 3.5 18:00:03 10° SSW 18:05:26 86° ESE 18:10:05 14° NNE
Intercosmos 25 3.7 18:04:17 10° NNW 18:07:24 55° W 18:11:05 10° S
NOSS 3-4 (A) 3.8 18:00:28 10° NNW 18:07:29 64° NE 18:14:54 10° SE
Okean 2 3.4 18:03:26 10° S 18:07:30 58° E 18:09:32 27° NNE
NOSS 3-4 (C) 3.8 18:00:34 10° NNW 18:07:35 63° NE 18:15:00 10° SE
Cosmos 1892 Rocket 3.5 18:06:54 10° S 18:11:09 58° E 18:13:08 30° NNE
Tiangong 1 2.5 18:10:27 10° WNW 18:12:41 26° NNW 18:12:41 26° NNW
Cosmos 2369 Rocket 2.6 18:12:51 10° S 18:18:02 38° ESE 18:18:41 37° E
Cosmos 1624 Rocket 4.3 18:13:07 10° SSW 18:18:16 66° WNW 18:22:49 14° N
Cosmos 1726 Rocket 3.5 18:15:04 10° N 18:19:31 66° E 18:23:57 10° SSE
Cosmos 1727 Rocket 4.1 18:13:38 10° SSE 18:19:34 50° E 18:23:21 22° NNE
Meteor 2-9 Rocket 4.0 18:15:21 10° N 18:20:46 85° E 18:26:04 10° S
NOAA 12 4.0 18:15:53 10° SSE 18:21:05 62° ENE 18:26:16 10° N
Meteor 1-15 Rocket 4.2 18:16:34 10° N 18:22:27 71° E 18:28:11 10° SSE
Meteor 1-23 Rocket 4.4 18:19:55 10° SSW 18:25:37 76° W 18:31:16 10° N
Meteor 2-4 Rocket 4.0 18:21:27 10° SSW 18:26:44 61° W 18:32:03 10° N
CZ-3B DEB 4.3 18:22:42 10° WNW 18:27:21 26° N 18:32:16 18° NE
Cosmos 1340 2.6 18:25:24 10° S 18:28:48 70° SSE 18:28:48 70° SSE
Cosmos 1606 Rocket 4.1 18:34:40 10° NNW 18:39:06 60° W 18:43:28 10° S
Cosmos 1934 Rocket 4.4 18:36:46 10° NNW 18:42:57 65° W 18:49:10 10° S
Cosmos 1943 Rocket 4.1 18:41:34 10° SSE 18:42:42 15° SSE 18:42:42 15° SSE
COSMO-SKYMED 1 4.5 18:43:10 10° NNW 18:46:52 28° WNW 18:50:32 10° SW
METEOR-M 4.0 18:42:58 10° SSE 18:48:18 86° WSW 18:53:41 10° NNW
Cosmos 1452 Rocket 3.4 18:49:04 10° SSW 18:54:18 82° WNW 18:54:40 76° NNW
Cosmos 1339 Rocket 4.3 18:48:50 10° S 18:54:54 86° E 18:56:45 48° N
GEOS 3 Rocket 4.4 18:58:28 39° NNW 18:58:28 39° NNW 19:01:43 10° NNW
Gbstr 26 Del rocket 4.3 19:13:06 10° SW 19:21:09 81° SSE 19:21:09 81° SSE
ATLAS 3B CENTAUR R/B 4.0 19:21:03 10° W 19:36:00 40° SSW 19:37:53 36° S
Cosmos 2369 Rocket 4.2 19:57:16 10° WSW 20:00:33 25° W 20:00:33 25° W
FALCON 9 R/B 4.1 20:09:19 10° W 20:18:20 38° WSW 20:18:20 38° WSW
